This demonstration page uses our WeatherBlox Daily Observations layout. Learn more.

Left ArrowRight Arrow

41.86663, -103.66717

Hourly Observations for December 1, 2021

Temp ( °F °C ) Dew Point ( °F °C ) Humidity (%) Winds ( mph kmh ) Pressure ( in mb ) Visibility ( mi km ) Precip ( " mm )
12:53 am 00:53 Clear 35 1.7 21 -6.1 57 57 N 5 7 30.04 1017 10 16 N/A
1:53 am 01:53 Clear 32 undefined 21 -6.1 64 64 NNW 5 7 30.05 1018 10 16 N/A
2:53 am 02:53 Clear 31 -0.6 21 -6.1 67 67 N N/A 30.05 1018 10 16 N/A
3:53 am 03:53 Clear 34 1.1 22 -5.6 61 61 N 7 11 30.03 1017 10 16 N/A
4:53 am 04:53 Clear 35 1.7 21 -6.1 57 57 WNW 6 9 30.01 1016 10 16 N/A
5:53 am 05:53 Clear 37 2.8 21 -6.1 52 52 NW 7 11 30.03 1017 10 16 N/A
6:53 am 06:53 Clear 44 6.7 22 -5.6 41 41 WNW 12 19 30.05 1018 10 16 N/A
7:53 am 07:53 Sunny 43 6.1 23 -5 45 45 WNW 7 11 30.07 1018 10 16 N/A
8:53 am 08:53 Sunny 53 11.7 24 -4.4 32 32 W 16 26 30.06 1018 10 16 N/A
9:53 am 09:53 Sunny 58 14.4 25 -3.9 28 28 W 18 30 30.07 1018 10 16 N/A
10:53 am 10:53 Sunny 60 15.6 25 -3.9 26 26 W 25 41 30.05 1018 10 16 N/A
11:53 am 11:53 Sunny 64 17.8 26 -3.3 24 24 W 20 31 30.00 1016 10 16 N/A
12:53 pm 12:53 Sunny 66 18.9 27 -2.8 23 23 W 12 19 29.98 1015 10 16 N/A
1:53 pm 13:53 Sunny 67 19.4 28 -2.2 23 23 W 18 30 29.96 1015 10 16 N/A
2:53 pm 14:53 Sunny 71 21.7 28 -2.2 20 20 W 25 41 29.94 1014 10 16 N/A
3:53 pm 15:53 Sunny 67 19.4 28 -2.2 23 23 W 22 35 29.97 1015 10 16 N/A
4:53 pm 16:53 Clear 63 17.2 27 -2.8 26 26 W 18 30 29.99 1016 10 16 N/A
5:53 pm 17:53 Clear 63 17.2 27 -2.8 26 26 W 23 37 29.99 1016 10 16 N/A
6:53 pm 18:53 Clear 60 15.6 28 -2.2 30 30 W 16 26 29.99 1016 10 16 N/A
7:53 pm 19:53 Clear 56 13.3 28 -2.2 34 34 WNW 9 15 30.02 1017 10 16 N/A
8:53 pm 20:53 Clear 50 10 28 -2.2 43 43 WNW 8 13 30.02 1017 10 16 N/A
9:53 pm 21:53 Clear 49 9.4 28 -2.2 44 44 WNW 9 15 30.02 1017 10 16 N/A
10:53 pm 22:53 Clear 47 8.3 28 -2.2 48 48 WNW 8 13 30.02 1017 10 16 N/A
11:53 pm 23:53 Clear 46 7.8 28 -2.2 50 50 NW 9 15 30.01 1016 10 16 N/A

Powered by AerisWeather